Retour au catalogue

GAOFEN 12 04

ActifScienceSSO
NORAD 57654·PAYLOAD·🇨🇳 China

Lancé Aug 20, 2023 depuis Jiuquan Satellite Launch Center

Loading…

Prochains Passages (prochaines 24 heures)

TLE

FraisSource: Space-Track

Époque: Sep 14, 2026, 14:14 UTC

1 57654U 23123A   26257.59309043  .00000697  00000-0  99289-4 0  9996
2 57654  97.9066 174.2463 0002460 154.1304 206.0031 14.79864942165854

Suivez GAOFEN 12 04 en temps réel avec AllMySat

Download on the App Store